Arctic Village, AK

12:07 PM AKDT on October 20, 2017 (GMT -0800)
Arctic Village

Weather History for PARC - December, 2013

Change the Weather History Date:

Saturday, December 7, 2013

  Actual Average Record
Temperature  
Mean Temperature 20 °F -  
Max Temperature 32 °F -7 °F 45 °F (1962)
Min Temperature 8 °F -24 °F -51 °F (1971)
Degree Days  
Heating Degree Days 45    
Moisture  
Dew Point 5 °F    
Average Humidity 73    
Maximum Humidity 100    
Minimum Humidity 29    
Precipitation  
Precipitation 0.00 in - - ()
Sea Level Pressure  
Sea Level Pressure 30.00 in    
Wind  
Wind Speed 6 mph (NW)    
Max Wind Speed 15 mph    
Max Gust Speed 23 mph    
Visibility 6 miles    
Events      
Averages and records for this station are not official NWS values.
T = Trace of Precipitation, MM = Missing Value Source: NWS Daily Summary

Daily Weather History Graph

Daily Weather History Graph

Search for Another Location

Airport or City:

Trip Planner

Search our weather history database for the weather conditions in past years. The results will help you decide how hot, cold, wet, or windy it might be!

Date:

Astronomy

Dec. 07, 2013 Rise Set
Actual Time 12:23 PM AKST 12:43 PM AKST
Civil Twilight 9:43 AM AKST 3:23 PM AKST
Nautical Twilight 8:17 AM AKST 4:50 PM AKST
Astronomical Twilight 7:06 AM AKST 6:01 PM AKST
Moon 12:47 PM AKST (12/7) 10:15 PM AKST (12/7)
Length of Visible Light 5h 40m
Length of Day
0h 20m
Waxing Crescent, 31% of the Moon is Illuminated
Dec 7
Waxing Crescent
Dec 9
First Quarter
Dec 17
Full
Dec 25
Last Quarter
Jan 1
New

Hourly Weather History & Observations

Time (AKST) Temp. Windchill Dew Point Humidity Pressure Visibility Wind Dir Wind Speed Gust Speed Precip Events Conditions
12:16 AM 15.8 °F - 12.2 °F 86% 30.11 in 2.0 mi North - - N/A   Overcast
12:36 AM 15.8 °F - 12.2 °F 86% 30.10 in 2.5 mi North - - N/A   Overcast
12:56 AM 15.8 °F - 12.2 °F 86% 30.10 in 3.0 mi North - - N/A   Overcast
1:16 AM 15.8 °F - 14.0 °F 93% 30.10 in 5.0 mi North - - N/A   Mostly Cloudy
1:36 AM 15.8 °F - 15.8 °F 100% 30.10 in 10.0 mi North - - N/A   Partly Cloudy
1:56 AM 14.0 °F - 14.0 °F 100% 30.10 in 10.0 mi North - - N/A   Partly Cloudy
2:16 AM 14.0 °F - 14.0 °F 100% 30.09 in 10.0 mi North - - N/A   Partly Cloudy
2:36 AM 14.0 °F - 12.2 °F 93% 30.09 in 10.0 mi North - - N/A   Scattered Clouds
2:56 AM 14.0 °F - 12.2 °F 93% 30.08 in 10.0 mi North - - N/A   Scattered Clouds
3:16 AM 14.0 °F - 12.2 °F 93% 30.08 in 10.0 mi North - - N/A   Overcast
3:36 AM 14.0 °F - 12.2 °F 93% 30.08 in 10.0 mi North - - N/A   Overcast
3:56 AM 12.2 °F - 10.4 °F 92% 30.07 in 10.0 mi North - - N/A   Scattered Clouds
4:16 AM 12.2 °F - 10.4 °F 92% 30.07 in 10.0 mi North - - N/A   Partly Cloudy
4:36 AM 12.2 °F - 12.2 °F 100% 30.06 in 10.0 mi North - - N/A   Partly Cloudy
4:56 AM 12.2 °F - 12.2 °F 100% 30.06 in 10.0 mi North - - N/A   Clear
5:16 AM 10.4 °F - 10.4 °F 100% 30.07 in 10.0 mi North - - N/A   Scattered Clouds
5:36 AM 10.4 °F - 10.4 °F 100% 30.07 in 10.0 mi North - - N/A   Mostly Cloudy
5:56 AM 10.4 °F - 10.4 °F 100% 30.06 in 10.0 mi North - - N/A   Mostly Cloudy
6:16 AM 12.2 °F - 12.2 °F 100% 30.06 in 10.0 mi North - - N/A   Partly Cloudy
6:36 AM 10.4 °F - 10.4 °F 100% 30.05 in 10.0 mi North - - N/A   Mostly Cloudy
6:56 AM 10.4 °F - 8.6 °F 92% 30.06 in 10.0 mi North - - N/A   Scattered Clouds
7:16 AM 10.4 °F - 6.8 °F 85% 30.05 in 10.0 mi North - - N/A   Partly Cloudy
7:36 AM 12.2 °F - 3.2 °F 67% 30.05 in 10.0 mi North - - N/A   Partly Cloudy
7:56 AM 10.4 °F - -0.4 °F 62% 30.05 in 10.0 mi North - - N/A   Clear
8:16 AM 10.4 °F - -0.4 °F 62% 30.04 in 10.0 mi North - - N/A   Partly Cloudy
8:36 AM 10.4 °F - -0.4 °F 62% 30.04 in 10.0 mi North - - N/A   Clear
8:56 AM 10.4 °F - -0.4 °F 62% 30.04 in 10.0 mi North - - N/A   Clear
9:16 AM 8.6 °F - -2.2 °F 62% 30.04 in 10.0 mi North - - N/A   Clear
9:36 AM 8.6 °F - -5.8 °F 52% 30.04 in 10.0 mi North - - N/A   Mostly Cloudy
9:56 AM 8.6 °F - -7.6 °F 48% 30.04 in 10.0 mi North - - N/A   Overcast
10:16 AM 10.4 °F - -5.8 °F 48% 30.04 in 10.0 mi North - - N/A   Overcast
10:36 AM 10.4 °F - -4.0 °F 52% 30.04 in 10.0 mi North - - N/A   Overcast
10:56 AM 10.4 °F - -2.2 °F 57% 30.04 in 10.0 mi North - - N/A   Overcast
11:16 AM 10.4 °F - -0.4 °F 62% 30.04 in 10.0 mi North - - N/A   Overcast
11:36 AM 8.6 °F - -2.2 °F 62% 30.03 in 10.0 mi North - - N/A   Overcast
11:56 AM 10.4 °F - -0.4 °F 62% 30.03 in 10.0 mi North - - N/A   Overcast
12:16 PM 10.4 °F - 3.2 °F 73% 30.02 in 5.0 mi North - - N/A   Overcast
12:36 PM 12.2 °F - 10.4 °F 92% 30.02 in 0.2 mi North - - N/A   Overcast
12:56 PM 12.2 °F - 12.2 °F 100% 30.02 in 0.2 mi North - - N/A   Overcast
1:16 PM 10.4 °F - - N/A% 30.02 in 0.2 mi North - - N/A   Overcast
1:36 PM 12.2 °F - - N/A% 30.02 in 0.2 mi North - - N/A   Overcast
1:56 PM 12.2 °F - - N/A% 30.02 in 0.2 mi North - - N/A   Overcast
2:16 PM 12.2 °F - - N/A% 30.02 in 0.2 mi North - - N/A   Overcast
2:36 PM 10.4 °F - - N/A% 30.01 in 0.2 mi North - - N/A   Overcast
2:56 PM 10.4 °F - - N/A% 30.01 in 0.2 mi North - - N/A   Overcast
3:16 PM 10.4 °F - - N/A% 30.01 in 0.5 mi North - - N/A   Overcast
3:36 PM 10.4 °F - 3.2 °F 73% 30.01 in 0.2 mi North - - N/A   Overcast
3:56 PM 10.4 °F - -7.6 °F 44% 30.00 in 0.2 mi North - - N/A   Overcast
4:16 PM 10.4 °F - -13.0 °F 34% 29.99 in 0.5 mi North - - N/A   Overcast
4:36 PM 10.4 °F - -9.4 °F 41% 29.98 in 0.5 mi North - - N/A   Overcast
4:56 PM 10.4 °F - 8.6 °F 92% 29.98 in 0.5 mi North - - N/A   Overcast
5:16 PM 10.4 °F - - N/A% 29.98 in 0.5 mi North - - N/A   Overcast
5:36 PM 10.4 °F - - N/A% 29.98 in 0.5 mi North - - N/A   Overcast
5:56 PM 10.4 °F - -5.8 °F 48% 29.97 in 0.2 mi North - - N/A   Overcast
6:16 PM 12.2 °F - -14.8 °F 29% 29.97 in 0.5 mi North - - N/A   Overcast
6:36 PM 10.4 °F - -9.4 °F 41% 29.96 in 0.5 mi North - - N/A   Overcast
6:56 PM 10.4 °F - 10.4 °F 100% 29.95 in 0.5 mi North - - N/A   Overcast
7:16 PM 10.4 °F - - N/A% 29.94 in 0.5 mi North - - N/A   Overcast
7:36 PM 10.4 °F - -5.8 °F 48% 29.93 in 0.5 mi North - - N/A   Overcast
7:56 PM 10.4 °F - -16.6 °F 29% 29.91 in 1.0 mi North - - N/A   Overcast
8:16 PM 10.4 °F - -9.4 °F 41% 29.90 in 6.0 mi North - - N/A   Overcast
8:36 PM 10.4 °F - - N/A% 29.89 in 9.0 mi North - - N/A   Overcast
8:56 PM 10.4 °F - - N/A% 29.88 in 10.0 mi North - - N/A   Overcast
9:16 PM 12.2 °F - -2.2 °F 53% 29.87 in 9.0 mi North - - N/A   Overcast
9:36 PM 26.6 °F 19.1 °F 15.8 °F 64% 29.83 in 10.0 mi West 6.9 mph - N/A   Mostly Cloudy
9:56 PM 32.0 °F 21.6 °F 32.0 °F 100% 29.83 in 10.0 mi West 15.0 mph 23.0 mph N/A   Partly Cloudy
10:16 PM 21.2 °F 11.7 °F 3.2 °F 46% 29.84 in 2.5 mi North 8.1 mph - N/A   Mostly Cloudy
10:36 PM 17.6 °F - 6.8 °F 63% 29.83 in 10.0 mi Calm Calm - N/A   Overcast
10:56 PM 19.4 °F - 12.2 °F 74% 29.83 in 10.0 mi Calm Calm - N/A   Overcast
11:16 PM 21.2 °F - - N/A% 29.82 in 10.0 mi Calm Calm - N/A   Overcast
11:36 PM 26.6 °F - 19.4 °F 74% 29.83 in 10.0 mi Calm Calm - N/A   Overcast
11:56 PM 24.8 °F 17.9 °F 15.8 °F 69% 29.84 in 10.0 mi North 5.8 mph - N/A   Overcast